Location: Rancho Del Sol Observatory
(38.7214°N, 120.6350°W)
Time: 09:56:29
(UTC-08:00)

A-11 Canister half - Pass Details

Date: 05 February 2020
Orbit: 1517 x 1683 km, 47.2° (Epoch: 26 February)

Event Time Altitude Azimuth Distance (km) Brightness Sun altitude
Rises 17:57:00 0° 190° (S) 4,865 12.0 -6.1°
Reaches altitude 10° 18:00:56 10° 177° (S) 3,857 11.3 -6.9°
Maximum altitude 18:08:18 25° 128° (SE) 2,828 10.1 -8.2°
Enters shadow 18:15:09 11° 80° (E) 3,692 10.3 -9.6°
Drops below altitude 10° 18:15:29 10° 78° (ENE) 3,768 - -9.6°
Sets 18:19:14 0° 66° (ENE) 4,730 - -10.3°
